Home > Weather > Butte > Past weeks

Flag for USA Weather for the Past 2 Weeks in Butte, Montana, USA

Now
49 °F

Overcast.


Feels Like: 46 °F
Forecast: 42 / 51 °F
Wind: 6 mph from West

Location: Mooney Airport

Current Time: May 6, 2016 at 10:59:20 AM

Latest Report: May 6, 2016 at 9:53 AM


Visibility: 10 mi

Pressure: 30.07 "Hg (24.52 "Hg at 1685m altitude)

Humidity: 74%

Dew Point: 41 °F

Location of ButteLocation

Historic Weather in Butte — Graph

°F

Butte Temperature Yesterday

Maximum temperature yesterday: 74 °F (at 4:53 PM)
Minimum temperature yesterday: 39 °F (at 6:53 AM)
Average temperature yesterday: 60 °F

High & Low Weather Summary for the Past Weeks

 TemperatureHumidityPressure
High74 °F (May 3, 5:53 PM)93% (May 1, 5:53 AM)30.35 "Hg (May 1, 5:53 AM)
Low26 °F (May 2, 5:53 AM)10% (May 2, 1:53 PM)29.60 "Hg (Apr 22, 10:53 PM)
Average46 °F59%29.95 "Hg
* Reported Apr 21 8:53 AM — May 6 8:53 AM, Butte, Weather by CustomWeather, © 2016

Note: Actual official high and low records may vary slightly from our data, if they occured in-between our weather recording intervals... More about our weather records

Advertising

Butte Weather History for the Previous 24 Hours

Scroll right to see more
 ConditionsComfort  
Time TempWeatherWind HumidityBarometerVisibility
8:53 AM
Fri, May 6
48 °FOvercast.No wind71%30.06 "Hg10 mi
7:53 AM46 °FOvercast.5 mph73%30.06 "Hg10 mi
6:53 AM45 °FPartly cloudy.3 mph76%30.03 "Hg10 mi
5:53 AM45 °FPassing clouds.7 mph74%29.99 "Hg10 mi
4:53 AM46 °FPassing clouds.3 mph71%29.97 "Hg10 mi
3:53 AM46 °FClear.3 mph71%29.95 "Hg10 mi
2:53 AM50 °FPassing clouds.5 mph63%29.92 "Hg10 mi
1:53 AM51 °FPassing clouds.9 mph63%29.91 "Hg10 mi
12:53 AM54 °FPassing clouds.6 mph57%29.87 "Hg10 mi
11:53 PM
Thu, May 5
58 °FClear.8 mph47%29.82 "Hg10 mi
10:53 PM63 °FPartly cloudy.8 mph37%29.82 "Hg10 mi
9:53 PM64 °FClear.3 mph33%29.80 "Hg10 mi
8:53 PM68 °FSunny.6 mph27%29.78 "Hg10 mi
7:53 PM69 °FSunny.5 mph22%29.80 "Hg10 mi
6:53 PM73 °FPassing clouds.13 mph20%29.79 "Hg10 mi
5:53 PM74 °FSunny.10 mph17%29.78 "Hg10 mi
4:53 PM74 °FSunny.5 mph17%29.78 "Hg10 mi
3:53 PM73 °FSunny.13 mph17%29.81 "Hg10 mi
2:53 PM73 °FSunny.15 mph17%29.82 "Hg10 mi
1:53 PM73 °FSunny.13 mph21%29.82 "Hg10 mi
12:53 PM69 °FPartly sunny.N/A23%29.85 "Hg10 mi
11:53 AM70 °FSunny.7 mph22%29.85 "Hg10 mi
10:53 AM64 °FSunny.No wind29%29.89 "Hg10 mi
Weather by CustomWeather, © 2016

See weather overviewHow to use our weather pages